sat.trackr.live / text

‹ back to catalog

STARLINK-34537

NORAD 64778 · 2025-147Z

PAYLOAD ACTIVE UNKNOWN

§ Identity

Operator
Country
US
Launch date
2025-07-08
Launch site
AFETR
Launch vehicle
Mass (kg)
RCS (m²)

Purposes: comms

External: N2YO · Heavens-Above · Gunter

§ Orbital elements

Epoch: 2026-05-24T22:31:57.084096Z

Period
94.11 min
Inclination
53.1599°
Eccentricity
0.0003462
Mean motion
15.30192905 rev/d
Perigee alt
472.9 km
Apogee alt
477.6 km
Semi-major
6,853.4 km
B*
-4.3141e-4
RAAN
225.7011°
Arg perigee
92.2612°
Mean anomaly
267.8785°
Rev number
5,077

§ Raw data

STARLINK-345371 64778U 25147Z   26144.93885514 -.00013115  00000+0 -43141-3 0  99992 64778  53.1599 225.7011 0003462  92.2612 267.8785 15.30192905 50778

JSON: /api/v1/satellites/64778 · /tle

For live sub-satellite position, see the globe view (requires WebGL).

§ Visibility from observer

Set your observer location to see the next 7 days of passes ≥ 10°. The values pass through the URL so the page stays shareable.

No JS? Fill the form by hand. The geolocation button needs JavaScript.